E20TWR-1 Weather Reports


Display with metric or nautical units.
time (UTC)temp
F
wind
direction
speed
MPH
gust
MPH
rain 1hr
in
rain 24hr
in
rain mn
in
humidity
%
barometer
mb
20260505013956 96 0 0.0 0.0 0.00 0.00 0.00 46 1012.0
20260505012932 96 0 0.0 0.0 0.00 0.00 0.00 46 1012.0
20260505011907 96 0 0.0 0.0 0.00 0.00 0.00 46 1012.0
20260505010843 96 0 0.0 0.0 0.00 0.00 0.00 46 1012.0
20260505005818 96 0 0.0 0.0 0.00 0.00 0.00 46 1012.0
20260505004754 97 0 0.0 0.0 0.00 0.00 0.00 45 1011.0
20260505003729 97 0 0.0 0.0 0.00 0.00 0.00 45 1011.0
20260505002705 97 0 0.0 0.0 0.00 0.00 0.00 45 1011.0
20260505001640 97 0 0.0 0.0 0.00 0.00 0.00 45 1011.0
20260505000615 96 0 0.0 0.0 0.00 0.00 0.00 45 1011.0
20260504235551 96 0 0.0 0.0 0.00 0.00 0.00 46 1011.0
20260504234526 96 0 0.0 0.0 0.00 0.00 0.00 46 1010.0
20260504233502 96 0 0.0 0.0 0.00 0.00 0.00 47 1010.0
20260504232438 95 0 0.0 0.0 0.00 0.00 0.00 47 1010.0
20260504231414 95 0 0.0 0.0 0.00 0.00 0.00 47 1010.0
20260504230349 95 0 0.0 0.0 0.00 0.00 0.00 47 1009.0
20260504225325 96 0 0.0 0.0 0.00 0.00 0.00 46 1009.0
20260504224300 96 0 0.0 0.0 0.00 0.00 0.00 45 1009.0
20260504224201 97 0 0.0 0.0 0.00 0.00 0.00 45 1009.0
20260504223137 96 0 0.0 0.0 0.00 0.00 0.00 46 1009.0
20260504222112 95 0 0.0 0.0 0.00 0.00 0.00 47 1009.0
20260504221048 93 0 0.0 0.0 0.00 0.00 0.00 49 1009.0
20260504220023 91 0 0.0 0.0 0.00 0.00 0.00 53 1009.0
20260504214959 87 0 0.0 0.0 0.00 0.00 0.00 56 1009.0
20260504140925 103 0 0.0 0.0 0.00 0.00 0.00 40 1010.0
20260504130658 103 0 0.0 0.0 0.00 0.00 0.00 40 1008.0
20260504110205 100 0 0.0 0.0 0.00 0.00 0.00 45 1007.0